Flag for U.S.A. Weather past 2 weeks in Barrow, Alaska, U.S.A.

Now
47 °F

Mostly cloudy.


Feels Like: 43 °F
Forecast: 38 / 51 °F
Wind: 7 mph from Southeast

Location: Post Rogers Memorial Airport

Current Time: Jul 4, 2015 at 9:38:16 AM

Latest Report: Jul 4, 2015 at 8:53 AM


Visibility: 10 mi

Pressure: 30.24 "Hg

Humidity: 83%

Dew point: 42 °F

Location of BarrowLocation

Historic Weather in Barrow — Graph

°F

Barrow temperature yesterday

Maximum temperature yesterday: 41 °F (at 9:53 PM)
Minimum temperature yesterday: 35 °F (at 6:53 AM)
Average temperature yesterday: 37 °F

Past Weeks' High & Low Weather Summary

 TemperatureHumidityPressure
High64 °F (Jun 19, 6:53 PM)100% (Jun 19, 7:53 AM)30.24 "Hg (Jun 19, 7:53 AM)
Low32 °F (Jun 22, 4:53 PM)58% (Jun 23, 9:53 AM)29.59 "Hg (Jun 25, 4:53 PM)
Average44 °F85%29.82 "Hg
* Reported Jun 19 7:53 AM — Jul 4 7:53 AM, Barrow, Weather by CustomWeather, © 2015

Note: Actual official high and low records may vary slightly from our data, if they occured in-between our weather recording intervals... More about our weather records

Advertising

Barrow weather history for previous 24 hours

 ConditionsComfort  
Time TempWeatherWind HumidityBarometerVisibility
7:53 AM
Sat, Jul 4
45 °FPartly sunny.9 mph82%30.23 "Hg10 mi
6:53 AM43 °FOvercast.8 mph79%30.23 "Hg10 mi
5:53 AM42 °FPartly sunny.8 mph82%30.24 "Hg10 mi
4:53 AM40 °FScattered clouds.6 mph86%30.23 "Hg10 mi
3:53 AM40 °FPartly sunny.6 mph86%30.24 "Hg10 mi
2:53 AM40 °FPartly sunny.6 mph86%30.23 "Hg10 mi
1:53 AM41 °FOvercast.6 mph82%30.23 "Hg10 mi
12:53 AM42 °FPartly sunny.7 mph73%30.23 "Hg10 mi
11:53 PM
Fri, Jul 3
41 °FOvercast.5 mph76%30.22 "Hg10 mi
10:53 PM41 °FOvercast.5 mph76%30.21 "Hg10 mi
9:53 PM41 °FPassing clouds.6 mph74%30.20 "Hg10 mi
8:53 PM39 °FMore clouds than sun.6 mph76%30.21 "Hg10 mi
7:53 PM40 °FOvercast.7 mph80%30.20 "Hg10 mi
6:53 PM39 °FScattered clouds.6 mph79%30.19 "Hg10 mi
5:53 PM38 °FPartly sunny.8 mph79%30.18 "Hg10 mi
4:53 PM38 °FScattered clouds.8 mph83%30.17 "Hg10 mi
3:53 PM37 °FSunny.3 mph86%30.15 "Hg10 mi
2:53 PM37 °FPassing clouds.8 mph86%30.16 "Hg10 mi
1:53 PM36 °FLow clouds.6 mph89%30.16 "Hg10 mi
12:53 PM36 °FLow clouds.7 mph92%30.15 "Hg9 mi
11:53 AM35 °FFog.9 mph96%30.14 "Hg4 mi
10:53 AM35 °FFog.7 mph96%30.12 "Hg1 mi
9:53 AM35 °FLow clouds.9 mph96%30.11 "Hg9 mi
Weather by CustomWeather, © 2015

See weather overviewHow to use our weather pages